Flag for Brazil Weather past 2 weeks in Cuiabá, Mato Grosso, Brazil

Now
72 °F

Passing clouds.


Feels Like: 65 °F
Forecast: 56 / 76 °F
Wind: 3 mph from Northeast

Location: Cuiaba Aeroporto

Current Time: Jul 24, 2014 at 6:45:59 AM

Latest Report: Jul 24, 2014 at 6:00 AM


Visibility: N/A

Pressure: 29.92 "Hg

Humidity: 100%

Dew point: 72 °F

Location of CuiabáLocation

Historic Weather in Cuiabá — Graph

°F

Cuiabá temperature yesterday

Maximum temperature yesterday: 93 °F (at 2:00 PM)
Minimum temperature yesterday: 72 °F (at 6:00 PM)
Average temperature yesterday: 81 °F

Past Weeks' High & Low Weather Summary

 TemperatureHumidityPressure
High95 °F (Jul 13, 2:00 PM)100% (Jul 11, 7:00 AM)30.21 "Hg (Jul 11, 7:00 AM)
Low63 °F (Jul 12, 5:00 AM)20% (Jul 13, 2:00 PM)29.83 "Hg (Jul 23, 2:00 PM)
Average75 °F67%30.03 "Hg
* Reported Jul 9 9:00 AM — Jul 24 5:00 AM, Cuiabá, Weather by CustomWeather, © 2014

Note: Actual official high and low records may vary slightly from our data, if they occured in-between our weather recording intervals... More about our weather records

Advertising

Cuiabá weather history for previous 24 hours

 ConditionsComfort  
Time TempWeatherWind HumidityBarometerVisibility
5:00 AM
Jul 24
72 °FPartly cloudy.2 mph100%29.89 "HgN/A
4:00 AM72 °FPartly cloudy.2 mph100%29.89 "HgN/A
3:00 AM72 °FPartly cloudy.2 mph100%29.89 "HgN/A
2:00 AM72 °FPartly cloudy.6 mph100%29.89 "HgN/A
1:00 AM72 °FLight rain. Partly cloudy.6 mph100%29.89 "HgN/A
12:00 AM73 °FPartly cloudy.2 mph94%29.92 "HgN/A
11:00 PM
Jul 23
73 °FPartly cloudy.6 mph94%29.92 "HgN/A
10:00 PM72 °FPartly cloudy.10 mph100%29.92 "HgN/A
9:00 PM72 °FLight rain. Passing clouds.7 mph100%29.92 "HgN/A
8:00 PM72 °FPassing clouds.5 mph100%29.92 "HgN/A
7:00 PM72 °FLight rain. Mostly cloudy.7 mph100%29.89 "HgN/A
6:00 PM72 °FStrong thunderstorms. Passing clouds.22 mph88%29.89 "Hg1 mi
5:00 PM84 °FPartly sunny.No wind48%29.83 "HgN/A
4:00 PM86 °FBroken clouds.5 mph43%29.83 "HgN/A
3:00 PM90 °FScattered clouds.15 mph36%29.83 "HgN/A
2:00 PM93 °FScattered clouds.14 mph32%29.83 "HgN/A
1:00 PM91 °FScattered clouds.18 mph36%29.89 "HgN/A
12:00 PM91 °FPassing clouds.22 mph34%29.92 "HgN/A
11:00 AM91 °FPassing clouds.18 mph34%29.95 "HgN/A
10:00 AM88 °FSunny.17 mph40%29.98 "Hg10 mi
9:00 AM84 °FSunny.12 mph48%29.98 "Hg10 mi
8:00 AM77 °FSunny.9 mph65%29.98 "Hg10 mi
7:00 AM75 °FSunny.9 mph65%29.98 "Hg10 mi
6:00 AM75 °FClear.6 mph69%29.95 "Hg10 mi
Weather by CustomWeather, © 2014

See weather overviewHow to use our weather pages